GALAXY 34 (G-34)

Last updated on Tue Jul 08 2025 00:02:48 GMT+0000 (Coordinated Universal Time)

1 54027U 22128B 25188.53795847 .00000076 00000+0 00000+0 0 9996 2 54027 0.0233 6.4873 0001687 104.7314 239.1854 1.00271315 10450
UTC large
Height (km)
Speed (km/s)
/
Latitude / Longitude
Inclination (degrees)
Orbital Period (minutes)
Azimuth
Elevation
Range (km)
Doppler Factor

Next 0 passes for location: London (51.5072 / 0.1276)

Sorry there are no passes over London.